Regional Weather Roundup
Issued by NWS State College, PA

Home | Current Version | Previous Version | Graphics & Text | Print | Product List | Glossary On
Versions: 1 2 3 4 5 6 7 8 9 10 11 12 13 14 15 16 17 18 19 20 21 22 23 24 25 26 27 28 29 30 31 32 33 34 35 36 37 38 39 40 41 42 43 44 45 46 47 48 49 50
000
ASUS41 KCTP 100810
RWRCTP

REGIONAL WEATHER ROUNDUP
NATIONAL WEATHER SERVICE STATE COLLEGE PA
300 AM EST WED FEB 10 2016

Note: "fair" indicates few or no clouds below 12,000 feet with no
significant weather and/or obstructions to visibility.

* = STATION THAT DOES NOT REPORT PRECIPITATION /E.G. RAIN...SNOW...ETC/
    THUNDER OR FOG.

PAZ002>004-007>009-013>016-020>023-029>032-100900-
WESTERN PENNSYLVANIA

CITY           SKY/WX    TMP DP  RH WIND       PRES   REMARKS
ERIE           LGT SNOW  28  22  78 W18G30    29.63S
MEADVILLE      FLURRIES  25  18  74 W12G23    29.61R WCI  14
FRANKLIN*      CLOUDY    23  16  74 W13       29.63S WCI  11
NEW CASTLE     FLURRIES  24  20  84 W9G17     29.69R WCI  14
BEAVER COUNTY  NOT AVBL
BUTLER*        CLOUDY    23  18  80 W12G18    29.71R WCI  12
PITTSBURGH INT FLURRIES  24  15  68 W17G24    29.70R WCI  11
PITTSBURGH     CLOUDY    25  18  74 W14G22    29.69R WCI  13
INDIANA*       CLOUDY    25  21  86 W12G17    29.68R WCI  14
LATROBE        FLURRIES  23  19  86 SW15      29.71R WCI  10
WASHINGTON CO* CLOUDY    23  18  80 SW12G22   29.72S WCI  12
$$

PAZ004>006-010>012-017>019-024>028-033>037-041-042-045-046-049>053-100900-
CENTRAL PENNSYLVANIA

CITY           SKY/WX    TMP DP  RH WIND       PRES   REMARKS
BRADFORD       CLOUDY    23  16  74 W9G23     29.52R WCI  13
DUBOIS         LGT SNOW  23  18  81 W14       29.57R WCI  11
CLEARFIELD     CLOUDY    25  18  74 W13G20    29.59S WCI  14
JOHNSTOWN      LGT SNOW  20  15  81 W20       29.58R WCI   4
ALTOONA        CLOUDY    25  17  72 W18       29.62S WCI  11
STATE COLLEGE  CLOUDY    27  20  76 W12       29.60S
WILLIAMSPORT   CLOUDY    32  23  69 W14       29.58S
SELINSGROVE    CLOUDY    30  24  78 SW6       29.62S
FT INDIANTOWN  CLOUDY    30  26  83 W15       29.60S
CAPITAL CITY   CLOUDY    29  23  78 W9        29.64R
HARRISBURG     CLOUDY    30  24  78 W9        29.63S
YORK           FLURRIES  27  23  85 W8        29.64S
$$

PAZ038>040-043-044-047-048-054-055-060>062-067>071-100900-
EASTERN PENNSYLVANIA

CITY           SKY/WX    TMP DP  RH WIND       PRES   REMARKS
SCRANTON       LGT SNOW  30  28  92 SW5       29.54S FOG
MOUNT POCONO   LGT SNOW  26  23  88 NW8       29.47F FOG
ALLENTOWN      CLOUDY    30  26  85 W7        29.58S FOG
QUAKERTOWN*    CLOUDY    30  28  93 CALM      29.59S
READING        CLOUDY    30  26  85 W5        29.60S
LANCASTER      LGT SNOW  27  26  96 W13       29.62S FOG
COATESVILLE    LGT SNOW  28  28 100 W9        29.61S
POTTSTOWN      CLOUDY    29  27  92 W5        29.61F FOG
BLUE BELL        N/A     30  28  93 CALM      29.60S
DOYLESTOWN     CLOUDY    28  27  96 W5        29.58S
WILLOW GROVE   NOT AVBL
NORTH PHILA    CLOUDY    33  29  85 W9        29.62F FOG
PHILADELPHIA   CLOUDY    33  27  78 W8        29.63S
$$



USA.gov is the U.S. government's official web portal to all federal, state and local government web resources and services.